Flag for India Weather past 2 weeks in Panvel, Maharashtra, India

Now
82 °F

Broken clouds.


Feels Like: 89 °F
Forecast: 79 / 85 °F
Wind: 10 mph from Southwest

Location: Bombay / Santacruz

Current Time: Jul 30, 2015 at 10:39:25 AM

Latest Report: Jul 30, 2015 at 10:10 AM


Visibility: 2 mi

Pressure: 29.80 "Hg

Humidity: 79%

Dew point: 75 °F

Location of PanvelLocation

Historic Weather in Panvel — Graph

°F

Panvel temperature yesterday

Maximum temperature yesterday: 84 °F (at 10:10 AM)
Minimum temperature yesterday: 79 °F (at 5:40 PM)
Average temperature yesterday: 82 °F

Past Weeks' High & Low Weather Summary

 TemperatureHumidityPressure
High91 °F (Jul 19, 3:40 PM)100% (Jul 21, 8:40 AM)29.80 "Hg (Jul 21, 8:40 AM)
Low77 °F (Jul 21, 8:40 AM)63% (Jul 19, 3:40 PM)29.53 "Hg (Jul 16, 3:40 PM)
Average84 °F83%29.65 "Hg
* Reported Jul 15 9:40 AM — Jul 30 9:40 AM, Panvel, Weather by CustomWeather, © 2015

Note: Actual official high and low records may vary slightly from our data, if they occured in-between our weather recording intervals... More about our weather records

Advertising

Panvel weather history for previous 24 hours

 ConditionsComfort  
Time TempWeatherWind HumidityBarometerVisibility
9:40 AM
Thu, Jul 30
82 °FBroken clouds.13 mph84%29.80 "Hg2 mi
9:10 AM82 °FBroken clouds.10 mph84%29.80 "Hg2 mi
8:40 AM82 °FBroken clouds.8 mph84%29.77 "Hg2 mi
8:10 AM81 °FBroken clouds.13 mph89%29.77 "Hg2 mi
7:10 AM81 °FScattered showers. More clouds than sun.13 mph89%29.77 "Hg2 mi
6:40 AM81 °FMostly cloudy.15 mph89%29.74 "Hg2 mi
6:10 AM79 °FMostly cloudy.7 mph94%29.74 "Hg1 mi
5:10 AM81 °FPartly cloudy.10 mph84%29.74 "Hg1 mi
4:40 AM81 °FPartly cloudy.14 mph84%29.71 "Hg1 mi
4:10 AM81 °FPartly cloudy.13 mph89%29.71 "Hg1 mi
3:40 AM81 °FPartly cloudy.12 mph84%29.71 "Hg1 mi
3:10 AM82 °FPartly cloudy.12 mph84%29.74 "Hg1 mi
2:40 AM82 °FPartly cloudy.14 mph84%29.74 "Hg1 mi
1:40 AM82 °FMostly cloudy.13 mph84%29.74 "Hg1 mi
12:40 AM82 °FMostly cloudy.13 mph84%29.77 "Hg1 mi
12:10 AM82 °FMostly cloudy.14 mph84%29.77 "Hg1 mi
11:10 PM
Wed, Jul 29
81 °FMostly cloudy.10 mph89%29.77 "Hg1 mi
10:10 PM82 °FMostly cloudy.9 mph84%29.77 "Hg1 mi
9:40 PM81 °FMostly cloudy.9 mph84%29.77 "Hg1 mi
9:10 PM79 °FLight rain. Mostly cloudy.14 mph94%29.77 "Hg1 mi
8:40 PM81 °FDrizzle. Mostly cloudy.12 mph89%29.77 "Hg1 mi
8:10 PM81 °FDrizzle. Mostly cloudy.9 mph89%29.74 "Hg1 mi
7:40 PM82 °FLight rain. More clouds than sun.13 mph84%29.74 "Hg1 mi
7:10 PM81 °FMore clouds than sun.8 mph89%29.74 "Hg1 mi
6:40 PM81 °FMore clouds than sun.10 mph89%29.71 "Hg1 mi
6:10 PM81 °FDrizzle. More clouds than sun.10 mph89%29.71 "Hg1 mi
5:40 PM79 °FLight rain. More clouds than sun.14 mph89%29.71 "Hg1 mi
5:10 PM82 °FDrizzle. More clouds than sun.14 mph84%29.71 "Hg1 mi
4:40 PM84 °FLight rain. More clouds than sun.15 mph79%29.71 "Hg2 mi
4:10 PM84 °FScattered showers. More clouds than sun.15 mph79%29.71 "Hg2 mi
3:10 PM84 °FScattered showers. Broken clouds.13 mph79%29.71 "Hg1 mi
2:40 PM82 °FLight rain. More clouds than sun.8 mph89%29.74 "Hg1 mi
2:10 PM82 °FDrizzle. More clouds than sun.13 mph84%29.74 "Hg1 mi
1:40 PM81 °FDrizzle. Broken clouds.20 mph84%29.74 "Hg1 mi
12:40 PM84 °FLight rain. Broken clouds.8 mph84%29.77 "Hg1 mi
12:10 PM84 °FScattered showers. Broken clouds.8 mph84%29.77 "Hg1 mi
11:40 AM82 °FBroken clouds.13 mph84%29.77 "Hg1 mi
10:40 AM84 °FBroken clouds.9 mph84%29.77 "Hg1 mi
10:10 AM84 °FBroken clouds.9 mph84%29.77 "Hg1 mi
Weather by CustomWeather, © 2015

See weather overviewHow to use our weather pages